Regional Weather Roundup
Issued by NWS

Home | Current Version | Previous Version | Text Only | Print | Product List | Glossary Off
Versions: 1 2 3 4 5 6 7 8 9 10 11 12 13 14 15 16 17 18 19 20 21 22 23 24 25 26 27 28 29 30 31 32 33 34 35 36 37 38 39 40 41 42 43 44 45 46 47 48 49 50

489
ASUS43 KDTX 310110
RWRMI
MICHIGAN HOURLY REGIONAL WEATHER ROUNDUP
NATIONAL WEATHER SERVICE DETROIT/PONTIAC MI
900 PM EDT MON MAY 30 2016

NOTE: "FAIR" INDICATES FEW OR NO CLOUDS BELOW 12,000 FEET WITH NO
SIGNIFICANT WEATHER AND/OR OBSTRUCTION TO VISIBILITY.

MIZ047>049-052>055-059>063-066>070-074>076-081>083-310200-
SOUTHEAST LOWER MICHIGAN

CITY           SKY/WX    TMP DP  RH WIND       PRES   REMARKS
ADRIAN         CLEAR     77  53  43 N5        29.97R
ALMA           CLEAR     72  47  41 NW5       29.98R
ANN ARBOR      CLEAR     73  53  49 NW3       29.96S
BAD AXE        PTCLDY    72  49  44 NW3       29.96R
CARO           PTCLDY    72  52  49 NW6       29.95S
DETROIT CITY   CLEAR     80  52  37 NW6       29.95R
DETROIT        PTCLDY    77  54  44 NW6       29.96R
FLINT          MOCLDY    78  55  44 W5        29.96R
GROSSE ILE     CLEAR     72  64  78 CALM      29.94S
HILLSDALE      CLEAR     74  45  35 NW6       29.99S
HOWELL         CLEAR     74  49  40 W3        29.98R

CITY           SKY/WX    TMP DP  RH WIND       PRES   REMARKS
JACKSON        CLEAR     73  50  44 NW5       29.99R
LAMBERTVILLE   CLEAR     75  55  50 CALM      29.96S
LANSING        CLEAR     76  51  41 W8        29.98S
LAPEER         MOCLDY    73  58  58 CALM      29.97R
MASON          CLEAR     73  53  48 W12       29.98R
MONROE         CLEAR     73  61  65 CALM      29.95S
MT. CLEMENS    PTCLDY    71  59  65 S6        29.94S
PONTIAC        CLEAR     76  52  43 W6        29.96R
PORT HOPE        N/A     68  58  70 CALM      29.95R
PORT HURON     CLEAR     66  61  82 CALM      29.95R
TRI CITIES     CLEAR     76  44  32 NW12      29.97R
MIDLAND        FAIR      71  46  40 NW3       29.97R
TROY           CLEAR     81  51  35 SW3       29.97S
SAGINAW HB     CLEAR     75  45  33 NW10G17   29.96R
$$
MIZ043>046-050>051-056>058-064>065-071>073-077>080-310200-
SOUTHWEST LOWER MICHIGAN

CITY           SKY/WX    TMP DP  RH WIND       PRES   REMARKS
BATTLE CREEK   CLEAR     72  55  55 NW6       29.99S
BENTON HARBOR  CLEAR     75  57  53 CALM      29.98R
BIG RAPIDS     CLEAR     71  44  37 NW5       29.99F
COLDWATER      CLEAR     74  50  43 NW5       29.99R
FREMONT        FAIR      72  46  40 CALM      29.99S
HOLLAND        CLEAR     73  56  54 NW3       30.00S
GRAND RAPIDS   PTCLDY    75  54  47 W8        29.99R
IONIA          FAIR      74  53  46 W6        29.98S
KALAMAZOO      CLEAR     73  55  53 NW5       29.98F
LUDINGTON      CLEAR     64  56  76 W6        30.00S
MARSHALL       CLEAR     74  53  47 CALM      29.98S
MOUNT PLEASANT CLEAR     73  44  35 NW3       29.98R
MUSKEGON       PTCLDY    68  55  63 CALM      30.00R
SOUTH HAVEN    CLEAR     72  60  65 CALM      29.98S
$$
MIZ016>042-310200-
NORTHERN LOWER MICHIGAN

CITY           SKY/WX    TMP DP  RH WIND       PRES   REMARKS
ALPENA         CLEAR     72  49  44 CALM      29.96R
BEAVER ISLAND  PTCLDY    57  50  77 W5        29.99R
BELLAIRE       CLEAR     69  54  59 CALM      29.96S
CADILLAC       CLEAR     70  48  46 CALM      30.00S
CHARLEVOIX     CLEAR     69  50  50 SW5       29.99R
FRANKFORT      CLEAR     65  56  71 NW3       29.98S
GAYLORD        CLEAR     68  49  50 W3        29.98R
GRAYLING       CLEAR     69  48  47 W3        30.00R
HARBOR SPRINGS CLEAR     67  51  56 W3        29.96R
HOUGHTON LAKE  CLEAR     70  45  40 CALM      30.00R
OSCODA         CLEAR     66  54  63 CALM      29.96R
PELLSTON       CLEAR     68  49  50 W8        29.97R
ROGERS CITY    CLEAR     69  49  47 N8        29.97R
TRAVERSE CITY  CLEAR     74  48  39 CALM      29.95S
$$
MIZ007>008-015-310200-
EASTERN UPPER MICHIGAN

CITY           SKY/WX    TMP DP  RH WIND       PRES   REMARKS
KINROSS          N/A     64  54  68 CALM      29.95R
MACKINAC ISLAN CLEAR     60  51  73 W5        29.96R
NEWBERRY       CLEAR     65  51  60 N8        29.96R
S. S. MARIE    CLEAR     62  50  64 W5        29.94R
MUNISING         N/A     55  48  77 NE7       29.99R
$$
MIZ004>006-011>014-085-310200-
CENTRAL UPPER MICHIGAN

CITY           SKY/WX    TMP DP  RH WIND       PRES   REMARKS
MANISTIQUE     PTCLDY    68  50  52 NW7       29.97R
ESCANABA         N/A    N/A N/A N/A MISG        N/A
MENOMINEE      CLEAR     75  50  41 CALM      29.96R
SAWYER-GWINN   CLEAR     61  48  63 NE16      30.00R
$$
MIZ001>003-009>011-084-310200-
WESTERN UPPER MICHIGAN

CITY           SKY/WX    TMP DP  RH WIND       PRES   REMARKS
IRON MOUNTAIN  CLEAR     72  44  36 N5        29.96R
HOUGHTON       CLEAR     63  47  55 N9        29.99R
COPPER HARBOR    N/A     50  45  83 N7        30.02R
IRONWOOD       CLEAR     70  46  43 NE5       29.94S
$$

ABBREVIATIONS USED IN REMARKS
   TC - TEMPERATURE IN CELSIUS
  WCI - WIND CHILL INDEX
   HX - HEAT INDEX
  VSB - VISIBILITY





USA.gov is the U.S. government's official web portal to all federal, state and local government web resources and services.